Location: Nianha
(10.8000°N, 4.6333°W)
Time: 22:37:16
(UTC+00:00)

CZ-4B DEB - Pass Details

Date: 14 November 2019
Orbit: 841 x 861 km, 99.1° (Epoch: 18 January)

Event Time Altitude Azimuth Distance (km) Brightness Sun altitude
Rises 05:06:41 0° 15° (NNE) 3,393 7.3 -16.6°
Reaches altitude 10° 05:09:03 10° 16° (NNE) 2,461 6.6 -16.0°
Maximum altitude 05:14:30 79° 103° (ESE) 866 4.3 -14.7°
Drops below altitude 10° 05:20:00 10° 189° (S) 2,475 6.7 -13.4°
Sets 05:22:22 0° 190° (S) 3,413 7.4 -12.9°
